Corning, AR

1:54 PM CST on February 26, 2017 (GMT -0600)
Corning

Weather History for K4M9 - January, 2014

Change the Weather History Date:

Sunday, January 12, 2014

  Actual Average (KARG) Record (KARG)
Temperature  
Mean Temperature 44 °F -  
Max Temperature 57 °F 42 °F 73 °F (2017)
Min Temperature 32 °F 27 °F 6 °F (1997)
Degree Days  
Heating Degree Days 20    
Moisture  
Dew Point 35 °F    
Average Humidity 71    
Maximum Humidity 100    
Minimum Humidity 48    
Precipitation  
Precipitation 0.00 in - - ()
Sea Level Pressure  
Sea Level Pressure 29.95 in    
Wind  
Wind Speed 10 mph (South)    
Max Wind Speed 30 mph    
Max Gust Speed 36 mph    
Visibility 10 miles    
Events      
Averages and records for this station are not official NWS values.
T = Trace of Precipitation, MM = Missing Value Source: NWS Daily Summary

Daily Weather History Graph

Daily Weather History Graph

Search for Another Location

Airport or City:

Trip Planner

Search our weather history database for the weather conditions in past years. The results will help you decide how hot, cold, wet, or windy it might be!

Date:

Astronomy

Jan. 12, 2014 Rise Set
Actual Time 7:14 AM CST 5:08 PM CST
Civil Twilight 6:45 AM CST 5:36 PM CST
Nautical Twilight 6:14 AM CST 6:08 PM CST
Astronomical Twilight 5:43 AM CST 6:39 PM CST
Moon 2:35 PM CST (1/12) 4:13 AM CST (1/12)
Length of Visible Light 10h 50m
Length of Day
9h 53m
Waxing Gibbous, 90% of the Moon is Illuminated
Jan 12
Waxing Gibbous
Jan 15
Full
Jan 23
Last Quarter
Jan 30
New
Feb 6
First Quarter

Hourly Weather History & Observations

Time (CST) Temp. Windchill Dew Point Humidity Pressure Visibility Wind Dir Wind Speed Gust Speed Precip Events Conditions
12:15 AM 35.6 °F 29.2 °F 32.0 °F 87% 30.00 in 10.0 mi West 8.1 mph - N/A   Clear
12:35 AM 35.6 °F 32.8 °F 32.0 °F 87% 30.00 in 10.0 mi WSW 3.5 mph - N/A   Clear
12:55 AM 35.6 °F 31.7 °F 32.0 °F 87% 30.00 in 10.0 mi WSW 4.6 mph - N/A   Clear
1:15 AM 35.6 °F - 32.0 °F 87% 30.00 in 10.0 mi Calm Calm - N/A   Clear
1:35 AM 35.6 °F 32.8 °F 32.0 °F 87% 30.00 in 10.0 mi SW 3.5 mph - N/A   Clear
1:55 AM 33.8 °F 27.0 °F 30.2 °F 87% 30.01 in 10.0 mi SW 8.1 mph - N/A   Clear
2:15 AM 33.8 °F 26.4 °F 32.0 °F 93% 30.02 in 10.0 mi WSW 9.2 mph - N/A   Clear
2:35 AM 33.8 °F 27.0 °F 32.0 °F 93% 30.02 in 10.0 mi SW 8.1 mph - N/A   Clear
2:55 AM 33.8 °F 28.6 °F 32.0 °F 93% 30.04 in 10.0 mi WSW 5.8 mph - N/A   Clear
3:15 AM 33.8 °F 28.6 °F 30.2 °F 87% 30.04 in 10.0 mi SW 5.8 mph - N/A   Clear
3:35 AM 35.6 °F 30.7 °F 30.2 °F 81% 30.04 in 10.0 mi SSW 5.8 mph - N/A   Clear
3:55 AM 33.8 °F 28.6 °F 30.2 °F 87% 30.04 in 10.0 mi SSW 5.8 mph - N/A   Clear
4:15 AM 32.0 °F 27.5 °F 28.4 °F 87% 30.04 in 10.0 mi SSW 4.6 mph - N/A   Clear
4:35 AM 32.0 °F 26.4 °F 30.2 °F 93% 30.04 in 10.0 mi South 5.8 mph - N/A   Clear
4:55 AM 32.0 °F 26.4 °F 30.2 °F 93% 30.04 in 10.0 mi SSE 5.8 mph - N/A   Clear
5:15 AM 32.0 °F 27.5 °F 32.0 °F 100% 30.04 in 10.0 mi South 4.6 mph - N/A   Clear
5:35 AM 32.0 °F 24.8 °F 32.0 °F 100% 30.04 in 10.0 mi South 8.1 mph - N/A   Clear
5:55 AM 32.0 °F 24.8 °F 30.2 °F 93% 30.05 in 10.0 mi SW 8.1 mph - N/A   Clear
6:15 AM 32.0 °F 27.5 °F 32.0 °F 100% 30.05 in 10.0 mi SW 4.6 mph - N/A   Clear
6:35 AM 32.0 °F 28.7 °F 30.2 °F 93% 30.05 in 10.0 mi SSE 3.5 mph - N/A   Clear
6:55 AM 32.0 °F 25.6 °F 30.2 °F 93% 30.05 in 10.0 mi SE 6.9 mph - N/A   Clear
7:15 AM 32.0 °F 24.8 °F 32.0 °F 100% 30.06 in 10.0 mi SSE 8.1 mph - N/A   Clear
7:35 AM 32.0 °F 27.5 °F 32.0 °F 100% 30.05 in 10.0 mi SSE 4.6 mph - N/A   Clear
7:55 AM 33.8 °F 28.6 °F 32.0 °F 93% 30.05 in 10.0 mi SSE 5.8 mph - N/A   Clear
8:15 AM 35.6 °F 30.7 °F 32.0 °F 87% 30.06 in 10.0 mi SSE 5.8 mph - N/A   Clear
8:35 AM 35.6 °F 30.7 °F 32.0 °F 87% 30.07 in 10.0 mi SSE 5.8 mph - N/A   Clear
8:55 AM 37.4 °F 33.8 °F 32.0 °F 81% 30.06 in 10.0 mi SSE 4.6 mph - N/A   Clear
9:15 AM 39.2 °F 37.0 °F 33.8 °F 81% 30.07 in 10.0 mi SSE 3.5 mph - N/A   Clear
9:35 AM 42.8 °F 38.0 °F 35.6 °F 76% 30.07 in 10.0 mi South 8.1 mph - N/A   Clear
9:55 AM 44.6 °F 39.7 °F 33.8 °F 66% 30.07 in 10.0 mi South 9.2 mph - N/A   Clear
10:15 AM 46.4 °F 41.9 °F 35.6 °F 66% 30.06 in 10.0 mi South 9.2 mph - N/A   Clear
10:35 AM 48.2 °F - 35.6 °F 62% 30.05 in 10.0 mi South 12.7 mph 18.4 mph N/A   Clear
10:55 AM 48.2 °F - 37.4 °F 66% 30.04 in 10.0 mi SSW 13.8 mph - N/A   Clear
11:15 AM 50.0 °F - 37.4 °F 62% 30.02 in 10.0 mi SSW 15.0 mph - N/A   Clear
11:35 AM 50.0 °F - 37.4 °F 62% 30.00 in 10.0 mi South 15.0 mph 19.6 mph N/A   Clear
11:55 AM 51.8 °F - 39.2 °F 62% 29.99 in 10.0 mi SSW 16.1 mph 20.7 mph N/A   Clear
12:15 PM 53.6 °F - 35.6 °F 51% 29.96 in 10.0 mi SSW 20.7 mph 26.5 mph N/A   Clear
12:35 PM 53.6 °F - 37.4 °F 54% 29.95 in 10.0 mi SSW 19.6 mph 28.8 mph N/A   Clear
12:55 PM 53.6 °F - 37.4 °F 54% 29.94 in 10.0 mi SSW 21.9 mph 29.9 mph N/A   Clear
1:15 PM 55.4 °F - 37.4 °F 51% 29.93 in 10.0 mi SSW 20.7 mph 29.9 mph N/A   Clear
1:35 PM 55.4 °F - 39.2 °F 54% 29.92 in 10.0 mi SSW 24.2 mph 32.2 mph N/A   Clear
1:55 PM 55.4 °F - 39.2 °F 54% 29.91 in 10.0 mi South 20.7 mph 31.1 mph N/A   Clear
2:15 PM 55.4 °F - 39.2 °F 54% 29.90 in 10.0 mi South 19.6 mph 26.5 mph N/A   Clear
2:35 PM 55.4 °F - 39.2 °F 54% 29.89 in 10.0 mi South 18.4 mph 26.5 mph N/A   Clear
2:55 PM 57.2 °F - 39.2 °F 51% 29.89 in 10.0 mi South 19.6 mph 26.5 mph N/A   Clear
3:15 PM 57.2 °F - 39.2 °F 51% 29.88 in 10.0 mi South 17.3 mph 25.3 mph N/A   Clear
3:35 PM 57.2 °F - 37.4 °F 48% 29.88 in 10.0 mi South 17.3 mph 26.5 mph N/A   Clear
3:55 PM 55.4 °F - 37.4 °F 51% 29.88 in 10.0 mi South 13.8 mph 21.9 mph N/A   Clear
4:15 PM 55.4 °F - 37.4 °F 51% 29.87 in 10.0 mi South 19.6 mph 26.5 mph N/A   Clear
4:35 PM 53.6 °F - 37.4 °F 54% 29.87 in 10.0 mi South 15.0 mph - N/A   Clear
4:55 PM 53.6 °F - 39.2 °F 58% 29.87 in 10.0 mi South 12.7 mph - N/A   Clear
5:15 PM 51.8 °F - 39.2 °F 62% 29.86 in 10.0 mi South 15.0 mph - N/A   Clear
5:35 PM 50.0 °F - 37.4 °F 62% 29.87 in 10.0 mi SSE 13.8 mph - N/A   Clear
5:55 PM 50.0 °F - 39.2 °F 66% 29.86 in 10.0 mi SSE 15.0 mph - N/A   Clear
6:15 PM 50.0 °F - 37.4 °F 62% 29.87 in 10.0 mi SSE 10.4 mph - N/A   Clear
6:35 PM 50.0 °F - 39.2 °F 66% 29.86 in 10.0 mi SSE 12.7 mph - N/A   Clear
6:55 PM 50.0 °F - 39.2 °F 66% 29.85 in 10.0 mi South 18.4 mph 23.0 mph N/A   Clear
7:15 PM 50.0 °F - 37.4 °F 62% 29.86 in 10.0 mi South 17.3 mph 23.0 mph N/A   Clear
7:35 PM 50.0 °F - 37.4 °F 62% 29.85 in 10.0 mi South 18.4 mph - N/A   Clear
7:55 PM 50.0 °F - 37.4 °F 62% 29.85 in 10.0 mi South 17.3 mph - N/A   Clear
8:15 PM 50.0 °F - 37.4 °F 62% 29.85 in 10.0 mi South 17.3 mph 20.7 mph N/A   Clear
8:35 PM 50.0 °F - 37.4 °F 62% 29.84 in 10.0 mi South 19.6 mph 28.8 mph N/A   Clear
8:55 PM 50.0 °F - 37.4 °F 62% 29.84 in 10.0 mi South 17.3 mph 23.0 mph N/A   Clear
9:15 PM 50.0 °F - 37.4 °F 62% 29.84 in 10.0 mi South 17.3 mph 21.9 mph N/A   Clear
9:35 PM 50.0 °F - 37.4 °F 62% 29.83 in 10.0 mi South 17.3 mph 21.9 mph N/A   Clear
9:55 PM 53.6 °F - 37.4 °F 54% 29.83 in 10.0 mi South 18.4 mph 21.9 mph N/A   Clear
10:15 PM 53.6 °F - 37.4 °F 54% 29.82 in 10.0 mi South 24.2 mph 31.1 mph N/A   Clear
10:35 PM 53.6 °F - 37.4 °F 54% 29.81 in 10.0 mi South 20.7 mph 29.9 mph N/A   Clear
10:55 PM 53.6 °F - 37.4 °F 54% 29.81 in 10.0 mi South 20.7 mph 27.6 mph N/A   Clear
11:15 PM 55.4 °F - 37.4 °F 51% 29.80 in 10.0 mi South 29.9 mph 35.7 mph N/A   Clear
11:35 PM 55.4 °F - 37.4 °F 51% 29.80 in 10.0 mi South 23.0 mph - N/A   Clear
11:55 PM 53.6 °F - 37.4 °F 54% 29.80 in 10.0 mi South 17.3 mph 31.1 mph N/A   Clear